TIANWANG 1B (TW-1B)
1 40927U 15051C   19062.52549900  .00012063  00000-0  20210-3 0  9996
2 40927  97.1539 108.4923 0011090  67.4363  38.5906 15.51924332193385
TIANWANG 1A (TW-1A)
1 40928U 15051D   19062.51416770  .00003576  00000-0  91179-4 0  9996
2 40928  97.1595  96.1635 0013422 100.9818  36.6324 15.40081280192678
LAPAN A2
1 40931U 15052B   19059.65853454  .00000686  00000-0  65491-5 0  9994
2 40931   6.0001 121.1316 0013012  36.6479 323.4538 14.76598712184970
LQSAT
1 40958U 15057A   19062.44400656 -.00000011  00000-0  59304-5 0  9990
2 40958  97.9100 134.4774 0017125 222.1390 137.8507 14.73068066183014
CHUBUSAT 2
1 41338U 16012B   19061.56594891 +.00000310 +00000-0 +17418-4 0  9992
2 41338 031.0030 111.8959 0013774 112.0726 248.1373 15.00100483166668
CHUBUSAT 3
1 41339U 16012C   19062.41311570  .00000239  00000-0  11848-4 0  9990
2 41339  31.0098 104.7502 0013516 127.9920 232.1936 15.00279304166783
OUFTI-1
1 41458U 16025C   19062.45720700  .00000963  00000-0  53529-4 0  9995
2 41458  98.1073 143.8679 0167274 358.1574   1.9013 15.05452595156445
E-STAR-2
1 41459U 16025D   19062.44917343  .00000481  00000-0  29216-4 0  9997
2 41459  98.1057 143.5805 0168750 359.1940   0.8982 15.05116934156418
AAUSAT 4
1 41460U 16025E   19062.28772516  .00002035  00000-0  10656-3 0  9996
2 41460  98.1024 144.3996 0159195 353.2881   6.6213 15.06859559156493
NUSAT 1
1 41557U 16033B   19062.51400863  .00001388  00000-0  55230-4 0  9999
2 41557  97.4212 150.6541 0012823 321.8969  38.1362 15.26912516153735
BEESAT 4
1 41619U 16040W   19062.41856792  .00001426  00000-0  63851-4 0  9992
2 41619  97.3814 126.5850 0012553  47.1746 313.0544 15.22812549137535
PRATHAM
1 41783U 16059A   19061.60496537 +.00000049 +00000-0 +18844-4 0  9993
2 41783 098.0825 123.4955 0033592 006.2488 353.9126 14.62975233129740
ALSAT 1N
1 41789U 16059G   19062.43729112  .00000024  00000-0  13654-4 0  9996
2 41789  98.0843 126.0754 0028024 354.8104   5.2804 14.64219061129958
NAYIF 1
1 42017U 17008BX  19061.65344443  .00001545  00000-0  64432-4 0  9998
2 42017  97.4159 129.8156 0006338 175.3081 184.8218 15.25183626113453
LILACSAT-1
1 42725U 98067ME  19062.47538024  .00279205  43468-4  55844-3 0  9994
2 42725  51.6302  96.3742 0005829  63.5418  77.6271 15.99257455101498
MAX VALIER SAT
1 42778U 17036P   19061.69969641  .00000889  00000-0  42160-4 0  9994
2 42778  97.3692 121.6753 0011073 238.9701 121.0449 15.21790915 93815
